SL-16 DEB, 24301

Orbit data source: Space-Track

SL-16 DEB, 24301 is space debris in LEO originally from a launch on Wed, 04 Sep 1996 UTC launched from the Tyuratam Missile And Space Complex (TTMTR). Debris objects in space refer to the collection of defunct objects orbiting the Earth. Examples of debris include non-operational satellites, rocket bodies, and fragments generated from explosions, collisions, or faulty payload assembly.

Loading next visibility...
Identifier
24301, 1996-051E
Orbit
LEO
Country
Flag of CISCIS
Related business
Manufacturer
Yuzhnoe
Mission
Spacecraft
Bus & Motor
SEP MOTOR COVER, Unknown motor
Mass
~0 kg wet, ~1 kg dry
Launch date (UTC)
1996-09-04 (30 years ago)
Launch vehicle
Unknown
Launch site
Tyuratam Missile And Space Complex (TTMTR)
Object type
Payload
Rocket body
Debris
Shape & HBR
Unknown
Radar Cross Section
Medium (>0.1 m² and <1 m²)

Expand to show TLE details & history
Last TLE update: 2 days ago

TLE from 2 days ago
0 SL-16 DEB
1 24301U 96051E   26171.37713347  .00000049  00000-0  85231-4 0  9999
2 24301  70.9911 144.3473 0206634 173.0495 339.5731 13.72612339491401
Epoch: 2026-06-20T09:03Z
TLE epoch observation values (Epoch: 2026-06-20T09:03:04.331Z)
Latitude
26.60694°
Longitude
-89.89719°
Altitude
850.59 km
Speed
7.501 km/s
True Right ascension
20h 57m 51s
True Declination
26° 28' 16"
Sunlit
Object was in daylight at epoch
Visualization orbit readout
Latitude
Unknown
Longitude
Unknown
Altitude
Unknown
Speed
Unknown
Apparent Right ascension
Unknown
Apparent Declination
Unknown
Sunlit
N/A
Visualization observer readout
Local Sidereal Time
23:21:51
Azimuth
Unknown
Elevation
Unknown
Doppler factor
Unknown
Orbital elements
Apogee altitude
1,140.387 km
Perigee altitude
835.96 km
Semi-major axis
7,366.311 km
Eccentricity
0.02066
Inclination
70.9911°
RAAN
144.3473°
Arg. of periapsis
173.0495°
True anomaly
338.72624°
Mean anomaly
339.5731°
Eccentric anomaly
339.15175°
Mean motion
3.43296 °/min
Orbital period
104.87 mins
BSTAR
0.000085231
Loading maneuver chart data...
Computing Atmospheric mass density...
Loading historical data...
Loading historical data...
Loading historical data...
Loading historical data...
Loading historical data...
Loading historical data...
Loading historical data...

Documentation

Showing up to 5 results
|